Weather History for McCall, ID

Change the Weather History Date:

Monday, November 1, 2010

  Actual Average Record
Temperature  
Mean Temperature 42 °F 35 °F  
Max Temperature 52 °F 46 °F 68 °F (1988)
Min Temperature 32 °F 23 °F 2 °F (2006)
Degree Days  
Heating Degree Days 23 30  
Month to date heating degree days 23 30  
Since 1 July heating degree days 1192 1573  
Cooling Degree Days 0 0  
Month to date cooling degree days 0 0  
Year to date cooling degree days 508 25  
Moisture  
Dew Point 35 °F    
Average Humidity 80    
Maximum Humidity 100    
Minimum Humidity 59    
Precipitation  
Precipitation T in 0.09 in 0.61 in (1944)
Month to date precipitation T 0.09  
Year to date precipitation 16.93 15.41  
Sea Level Pressure  
Sea Level Pressure 30.41 in    
Wind  
Wind Speed 3 mph (SSE)    
Max Wind Speed 3 mph    
Max Gust Speed 6 mph    
Visibility 8 miles    
Events      
T = Trace of Precipitation, MM = Missing Value Source: NWS Daily Summary

Daily Weather History Graph

Daily Weather History Graph

Search for Another Location

Airport:

Trip Planner

Search our weather history database for the weather conditions in past years. The results will help you decide how hot, cold, wet, or windy it might be!

Date:

Astronomy

Nov. 01, 2010 Rise Set
Actual Time 8:22 AM MDT 6:32 PM MDT
Civil Twilight 7:52 AM MDT 7:03 PM MDT
Nautical Twilight 7:17 AM MDT 7:37 PM MDT
Astronomical Twilight 6:43 AM MDT 8:11 PM MDT
Moon 2:51 AM MDT (11/1) 3:53 PM MDT (11/1)
Length of Visible Light 11h 10m
Length of Day
10h 09m
Waning Crescent, 26% of the Moon is Illuminated
Nov 1
Waning Crescent
Nov 5
New
Nov 13
First Quarter
Nov 21
Full
Nov 28
Last Quarter

Hourly Weather History & Observations

Time (MDT) Temp. Windchill Dew Point Humidity Pressure Visibility Wind Dir Wind Speed Gust Speed Precip Events Conditions
12:51 AM 36.0 °F - 34.0 °F 93% 30.33 in 9.0 mi Calm Calm - N/A   Overcast
1:51 AM 35.1 °F - 34.0 °F 96% 30.35 in 10.0 mi Calm Calm - N/A   Mostly Cloudy
2:00 AM 35.6 °F - 33.8 °F 93% 30.32 in 10.0 mi Calm Calm - N/A   Overcast
2:09 AM 33.8 °F - 33.8 °F 100% 30.32 in 2.5 mi Calm Calm - N/A   Overcast
2:13 AM 33.8 °F - 33.8 °F 100% 30.32 in 1.0 mi Calm Calm - N/A   Overcast
2:27 AM 35.6 °F - 33.8 °F 93% 30.32 in 1.2 mi Calm Calm - N/A   Mostly Cloudy
2:34 AM 33.8 °F - 33.8 °F 100% 30.32 in 3.0 mi Calm Calm - N/A   Scattered Clouds
2:51 AM 34.0 °F - 33.1 °F 96% 30.36 in 5.0 mi Calm Calm - N/A   Partly Cloudy
3:51 AM 33.1 °F - 33.1 °F 100% 30.36 in 10.0 mi Calm Calm - N/A   Partly Cloudy
4:51 AM 33.1 °F - 32.0 °F 96% 30.39 in 10.0 mi Calm Calm - N/A   Partly Cloudy
5:51 AM 33.1 °F 30.0 °F 30.9 °F 92% 30.40 in 4.0 mi East 3.5 mph - N/A   Mostly Cloudy
6:23 AM 33.8 °F - 32.0 °F 93% 30.35 in 6.0 mi Calm Calm - N/A   Scattered Clouds
6:51 AM 33.1 °F - 32.0 °F 96% 30.41 in 5.0 mi Calm Calm - N/A   Partly Cloudy
7:51 AM 33.1 °F - 32.0 °F 96% 30.42 in 9.0 mi Calm Calm - N/A   Scattered Clouds
8:51 AM 33.1 °F - 33.1 °F 100% 30.45 in 3.0 mi Calm Calm - N/A   Overcast
9:51 AM 37.0 °F - 36.0 °F 96% 30.46 in 5.0 mi Calm Calm - N/A   Overcast
10:51 AM 39.9 °F - 37.0 °F 89% 30.46 in 10.0 mi Calm Calm - 0.00 in   Overcast
11:51 AM 42.1 °F - 37.9 °F 85% 30.46 in 10.0 mi Calm Calm - N/A   Mostly Cloudy
12:51 PM 46.0 °F 42.5 °F 39.0 °F 76% 30.46 in 10.0 mi South 6.9 mph - N/A   Overcast
1:51 PM 48.0 °F - 37.9 °F 68% 30.44 in 10.0 mi SSE 6.9 mph - N/A   Overcast
2:51 PM 52.0 °F - 37.0 °F 57% 30.42 in 10.0 mi South 12.7 mph - N/A   Overcast
3:51 PM 51.1 °F - 37.0 °F 59% 30.42 in 10.0 mi SE 8.1 mph - N/A   Mostly Cloudy
4:51 PM 51.1 °F - 37.0 °F 59% 30.42 in 10.0 mi SSE 8.1 mph - N/A   Overcast
5:51 PM 50.0 °F - 37.9 °F 63% 30.43 in 10.0 mi SSW 6.9 mph - N/A   Mostly Cloudy
6:51 PM 48.9 °F - 37.0 °F 64% 30.44 in 10.0 mi SE 5.8 mph - N/A   Overcast
7:51 PM 48.9 °F - 37.0 °F 64% 30.45 in 10.0 mi SSE 4.6 mph - N/A   Overcast
8:51 PM 45.0 °F - 37.0 °F 74% 30.48 in 10.0 mi Calm Calm - N/A   Partly Cloudy
9:51 PM 43.0 °F - 37.0 °F 80% 30.49 in 10.0 mi Calm Calm - N/A   Scattered Clouds
10:51 PM 42.1 °F - 36.0 °F 79% 30.50 in 10.0 mi Calm Calm - N/A   Mostly Cloudy
11:51 PM 42.1 °F - 37.0 °F 82% 30.51 in 10.0 mi Calm Calm - N/A   Overcast